Location: Nairn
(57.5833°N, 3.8667°W)
Time: 03:39:09
(UTC+00:00)

Cosmos 1340 Rocket - Pass Details

Date: 07 August 2020
Orbit: 530 x 558 km, 81.2° (Epoch: 27 September)

Event Time Altitude Azimuth Distance (km) Brightness Sun altitude
Exits shadow 03:30:54 - 193° (SSW) 2,322 5.5 -6.4°
Reaches altitude 10° 03:32:09 10° 193° (SSW) 1,811 5.0 -6.3°
Maximum altitude 03:36:08 89° 110° (ESE) 550 2.8 -5.9°
Drops below altitude 10° 03:40:08 10° 16° (NNE) 1,810 6.5 -5.5°
Sets 03:42:17 0° 16° (NNE) 2,702 7.5 -5.3°
